Theta_e
337 336 335 334 333 334 335 334 334 335 336 337 337 338 338 339 341 342 341 340 337 334 333 331 331 332 331 331 331 332 332 332 332 332 331 332 332 332 332 332 332 330 330 330 330 330 328 324 322 321 320 318 317 316 316 317 318 318 318 318 319 319 318 318 317 316 316 316 316 317 317 318 318 318
337 337 336 336 336 335 335 335 335 336 336 337 338 339 338 338 340 341 342 341 337 334 333 333 332 332 331 331 331 331 332 332 331 331 331 332 332 331 331 332 332 332 331 330 329 328 327 326 324 322 321 319 318 317 317 317 319 319 319 319 319 319 318 317 317 317 317 317 316 316 316 317 317 317
337 337 337 336 335 335 335 335 335 336 336 337 336 337 337 337 338 339 340 342 340 336 335 334 333 332 332 331 330 331 331 331 332 332 332 332 331 331 331 331 331 331 332 332 330 329 329 329 329 328 327 326 323 322 322 322 321 321 320 320 319 319 318 317 317 317 318 318 317 317 316 316 316 316
337 336 336 336 335 335 336 336 336 336 336 336 335 335 335 335 336 337 339 341 340 336 335 335 333 333 332 331 331 330 330 331 332 332 332 332 331 332 332 332 332 333 333 333 332 332 331 330 330 330 330 330 328 327 326 326 325 323 322 321 320 319 318 317 317 317 318 318 318 317 317 317 317 317
337 336 336 336 336 336 337 337 337 337 336 335 335 335 334 334 335 336 336 338 338 336 334 334 334 334 333 332 331 331 331 331 332 332 332 332 331 332 332 332 333 333 333 333 332 332 332 331 331 330 330 329 329 328 327 326 325 324 323 323 322 321 319 318 318 318 318 318 318 318 318 318 317 317
337 336 335 336 337 337 337 337 336 337 335 335 334 334 334 334 334 334 334 335 336 336 334 334 334 334 334 333 332 332 332 332 332 332 332 332 332 332 332 332 332 333 332 332 332 331 331 331 330 329 329 328 328 327 326 325 325 324 324 324 323 322 322 321 320 319 319 319 318 318 318 319 319 318
337 336 336 336 337 337 337 336 336 336 335 335 334 334 334 334 334 334 335 335 336 336 335 334 334 335 335 334 334 333 333 333 332 332 332 332 332 332 332 332 331 331 331 331 331 330 330 329 329 328 328 327 327 326 326 325 325 325 324 325 324 323 323 323 322 322 321 320 320 320 320 320 320 320
338 337 336 337 337 337 337 336 335 335 335 334 334 334 334 335 335 335 335 335 335 336 336 335 335 335 335 335 335 335 334 333 331 331 331 331 331 331 331 331 331 330 330 330 330 329 329 329 328 328 327 327 327 326 326 326 325 325 325 324 324 323 323 323 323 323 322 322 322 322 321 321 321 321
338 337 337 337 337 337 336 335 335 335 335 334 333 334 334 334 334 335 335 335 335 335 336 335 335 334 334 335 335 334 334 332 330 330 329 330 330 330 331 331 330 330 329 329 329 329 329 328 328 328 328 328 327 327 327 326 326 325 325 324 324 324 323 323 324 323 323 323 323 323 323 322 321 321
338 338 337 337 338 337 336 336 335 335 334 333 333 333 334 334 334 335 335 335 336 336 335 335 334 334 334 334 333 333 332 331 330 329 329 329 329 330 330 330 329 329 329 329 330 330 329 329 329 329 328 328 328 328 327 326 326 325 325 325 324 324 324 324 324 324 324 324 324 324 324 323 322 322
338 337 337 338 337 337 336 336 335 335 334 333 332 333 333 333 334 335 335 335 335 335 335 335 334 334 333 333 332 331 331 330 330 329 329 330 329 329 329 329 328 328 329 329 330 329 329 329 329 329 329 328 328 327 327 327 326 325 325 325 324 324 324 324 324 324 324 324 324 324 324 324 323 323
337 337 337 337 337 337 336 336 335 334 333 332 332 332 333 334 335 334 334 335 335 335 335 335 334 333 333 332 331 330 330 330 330 329 329 330 329 328 328 328 328 329 329 329 328 328 328 328 329 329 328 328 328 328 327 327 326 325 325 325 324 324 325 325 324 325 325 324 325 325 324 324 324 323
337 337 337 337 337 336 336 335 334 334 333 333 333 333 334 334 332 331 332 333 334 335 335 334 334 333 332 332 331 330 330 330 330 329 329 329 329 329 329 329 329 328 327 327 328 327 328 328 328 328 328 328 328 327 327 326 326 325 325 325 325 325 325 325 324 324 324 324 324 324 324 324 324 324
337 337 337 336 336 335 335 334 333 333 333 332 332 333 333 332 330 331 333 333 334 335 334 333 332 332 331 331 330 330 330 329 329 329 329 330 330 329 329 329 328 327 326 327 328 328 327 327 327 327 327 326 325 324 324 324 324 325 325 325 324 324 323 322 322 322 322 322 322 323 323 323 323 323
338 338 337 337 336 335 334 334 333 332 332 332 332 332 332 332 331 332 333 333 333 334 333 331 331 331 331 331 330 330 330 329 329 329 329 329 330 329 329 329 327 326 326 327 328 328 326 326 325 325 324 323 322 322 323 323 323 323 323 323 322 322 321 322 322 323 323 323 323 322 323 323 323 323
339 339 338 337 337 336 335 334 334 333 333 332 332 333 333 332 332 332 332 332 333 333 330 329 329 330 331 331 330 330 330 330 329 329 328 328 328 328 327 327 326 325 325 326 326 325 324 323 323 323 323 322 322 322 322 322 322 322 322 322 322 322 321 322 321 321 321 321 321 321 321 322 322 322
340 339 338 338 338 337 336 335 334 333 332 332 332 333 332 332 331 331 331 332 333 333 330 329 329 331 331 331 330 329 330 329 328 327 326 326 325 325 325 324 324 324 323 324 324 323 323 323 322 323 322 322 322 323 323 323 322 321 321 321 321 321 320 319 319 318 318 319 320 320 320 321 322 322
339 338 339 340 340 339 337 336 335 333 333 333 333 333 334 332 331 331 331 332 332 332 332 331 330 331 330 330 330 329 328 327 326 325 324 323 323 323 322 322 322 322 321 322 323 323 323 322 322 323 322 322 322 322 322 321 320 320 320 320 319 319 318 317 317 318 318 320 321 321 321 321 321 321
337 338 338 338 339 339 338 336 335 334 333 334 334 334 334 333 332 332 332 332 331 331 331 330 329 329 329 329 329 327 325 324 323 322 321 321 321 321 322 322 322 321 321 320 321 323 322 321 321 321 320 320 320 320 319 319 318 318 318 318 317 317 317 318 319 320 321 321 321 321 321 321 321 321
337 338 337 336 337 338 338 336 334 334 334 334 333 333 334 333 333 333 332 331 331 331 330 329 329 329 329 328 326 324 322 321 321 320 320 320 321 321 322 323 322 322 321 320 320 321 320 319 319 319 319 319 319 318 318 317 317 317 317 316 317 318 319 321 321 322 322 321 321 321 321 321 321 321
337 337 337 336 336 336 335 334 334 334 334 333 331 332 335 335 335 334 331 330 330 330 329 328 327 326 326 325 324 323 322 322 320 320 321 321 321 322 323 323 322 322 321 321 320 319 319 318 318 318 317 316 316 315 314 314 314 315 316 317 319 320 321 321 322 322 322 322 321 321 321 321 321 321
337 338 339 338 337 335 332 333 334 333 332 331 329 332 335 336 334 333 331 330 329 328 327 327 326 325 325 325 324 323 322 321 321 321 321 320 321 322 323 323 323 323 322 321 319 318 318 317 316 315 314 313 312 312 312 313 314 317 319 320 321 322 322 322 322 322 321 321 321 321 322 322 322 322
339 340 340 341 339 332 328 332 334 332 330 330 330 333 335 334 332 330 329 329 328 328 327 326 325 325 324 324 323 322 321 322 321 321 321 321 322 323 324 324 324 323 321 319 316 315 315 314 312 312 312 313 313 314 315 316 318 320 321 322 322 322 322 321 321 321 321 321 322 322 323 323 323 323
338 338 337 337 332 325 324 330 333 331 329 330 332 334 333 331 329 328 328 328 327 326 326 325 324 324 323 323 323 322 322 321 321 320 320 322 322 323 323 322 320 318 317 315 313 312 312 312 313 313 314 315 316 317 319 320 321 321 322 322 322 322 321 321 321 321 321 322 322 323 324 324 325 324
335 334 332 329 324 322 327 330 330 330 330 330 332 333 330 327 326 326 326 325 324 323 323 324 323 322 322 322 321 321 320 320 319 318 319 319 319 319 318 317 316 315 314 312 312 312 313 314 315 316 317 318 319 320 320 321 322 322 322 322 322 321 321 321 321 321 322 323 323 324 324 325 326 326
333 329 326 323 323 327 331 331 330 332 331 329 329 329 325 323 322 322 322 322 321 322 323 323 322 321 320 320 320 320 319 319 318 318 317 317 316 316 315 315 314 314 313 312 313 314 315 316 316 317 318 319 320 321 321 322 322 322 322 322 321 321 321 321 321 322 322 323 324 324 324 326 327 328
329 324 323 325 328 331 331 331 332 332 329 326 324 323 321 321 321 320 319 319 320 322 322 321 321 321 320 320 320 319 318 317 317 316 316 315 315 314 314 314 313 313 313 313 313 314 315 315 316 318 319 320 321 322 323 323 322 322 322 321 321 320 320 321 321 322 323 323 324 324 325 326 328 329
326 326 330 332 332 332 332 332 331 328 324 322 321 321 321 320 320 319 318 319 320 321 321 322 322 321 320 319 318 317 316 316 315 314 314 314 313 313 313 313 313 313 312 312 312 313 314 316 317 318 320 321 322 322 323 322 322 322 322 321 320 320 320 321 322 322 323 323 324 325 325 327 328 329
332 333 335 334 332 332 332 330 327 323 322 321 321 321 321 320 319 318 319 321 321 321 321 321 320 318 317 316 316 315 315 315 314 314 313 313 313 312 312 312 311 311 311 311 312 314 315 317 318 319 320 321 322 322 322 322 322 322 322 321 320 320 320 321 321 322 322 323 324 324 325 326 326 327
334 334 335 334 333 332 330 327 323 322 321 321 321 321 320 319 318 319 320 321 321 320 320 319 317 316 316 315 315 315 314 314 314 313 313 312 311 311 311 311 310 310 310 311 312 315 316 317 318 320 321 322 322 322 322 322 322 322 321 320 320 320 321 321 321 321 322 322 323 323 323 324 325 325
332 333 333 332 331 329 326 323 322 321 321 321 321 320 320 320 320 320 320 320 320 320 319 317 317 316 316 315 314 313 313 313 312 311 310 310 310 311 310 310 310 310 311 311 313 315 316 317 318 320 321 322 322 321 322 322 323 322 321 320 320 321 321 321 321 320 321 321 322 322 322 323 324 325
330 330 329 328 326 324 322 322 322 321 322 322 322 322 322 322 321 321 320 319 319 319 318 317 317 317 315 314 312 311 312 312 311 309 309 309 310 309 309 310 311 311 311 312 312 314 315 316 317 319 320 321 321 321 322 323 322 321 320 320 320 320 320 320 320 320 320 320 321 322 322 323 323 324
328 327 325 324 323 322 323 323 324 323 323 324 323 323 323 322 321 320 319 319 319 318 317 317 317 315 314 312 311 310 310 310 309 309 309 309 308 308 310 311 312 311 312 312 312 313 314 315 316 317 318 320 321 321 322 322 321 320 320 320 320 320 320 319 319 319 319 320 320 321 322 322 322 324
327 326 325 324 325 325 326 326 325 325 324 324 323 323 322 321 320 319 319 318 317 316 316 315 314 313 312 311 311 310 309 309 308 308 308 308 308 309 310 311 311 311 311 311 311 312 313 313 315 317 318 320 321 322 321 320 320 320 320 319 319 319 319 318 318 318 318 319 320 321 321 322 322 323
328 328 327 327 327 327 326 325 324 324 323 322 321 320 320 319 319 319 318 317 315 314 313 313 312 312 311 310 310 309 308 308 308 308 308 308 309 309 310 311 311 310 310 310 310 311 311 313 316 319 320 321 322 321 320 320 320 319 319 319 319 319 318 318 317 317 318 318 319 320 321 321 321 322
329 328 327 326 326 325 325 324 323 322 322 321 320 319 318 318 318 317 315 315 314 313 313 312 311 311 310 309 309 308 308 308 308 307 308 309 309 309 310 310 310 309 309 310 310 309 310 313 317 320 321 321 321 321 320 319 319 319 319 319 319 318 317 317 317 317 317 318 319 320 320 319 320 320
327 326 325 325 325 324 323 322 322 321 321 320 319 318 318 317 317 316 315 314 312 312 311 310 310 310 309 309 308 308 307 307 307 308 308 308 308 309 309 309 309 309 309 309 309 309 311 315 318 319 321 322 322 320 319 319 318 318 318 319 319 317 317 316 316 316 317 317 318 318 318 318 318 320
325 325 324 324 324 323 322 321 320 320 319 319 318 318 317 316 316 316 315 313 311 311 310 310 309 309 307 307 307 307 307 308 308 308 308 308 308 309 308 308 309 309 309 309 309 310 313 317 318 318 319 321 322 320 320 320 319 318 317 317 318 317 316 316 316 316 316 317 317 317 316 316 317 319
323 323 323 323 323 322 321 320 319 319 319 318 317 317 317 316 316 315 314 312 311 310 310 309 309 307 305 305 307 308 308 308 307 307 307 307 308 308 308 308 309 309 309 309 310 311 314 316 317 316 318 320 320 320 320 320 320 318 317 316 316 316 315 315 315 315 315 316 316 315 314 315 316 317
320 321 321 321 321 320 320 319 319 319 318 317 317 316 316 315 314 314 313 311 310 309 308 308 307 304 304 306 308 308 307 307 307 306 307 307 307 307 308 308 308 308 309 309 310 311 314 315 316 316 317 318 319 318 319 320 319 318 316 315 315 314 314 314 314 315 315 315 315 313 313 314 315 316
320 320 320 320 320 320 319 318 318 318 317 317 316 316 315 314 312 311 311 309 308 307 306 306 304 303 304 307 308 307 307 306 306 306 306 306 306 307 307 308 308 308 309 309 310 312 314 314 314 316 317 318 318 318 319 319 318 317 316 315 314 313 313 313 313 313 314 314 313 312 312 312 314 315
321 321 320 320 319 319 318 318 317 316 316 316 315 314 314 313 312 310 309 308 308 307 307 306 306 306 307 307 306 306 306 306 305 305 306 306 306 307 307 308 308 308 308 309 310 311 312 312 314 317 317 318 318 319 319 319 318 317 315 314 313 312 312 312 312 312 312 313 311 310 310 311 313 315
321 321 320 319 318 318 318 317 316 316 315 314 314 313 313 312 311 309 308 307 308 308 307 307 307 307 306 306 306 305 305 305 305 305 305 306 306 307 307 307 307 308 308 308 309 310 311 312 314 317 317 317 318 318 318 318 317 316 315 313 313 312 311 311 311 310 311 311 310 310 311 311 311 313
320 320 319 318 318 318 317 316 315 315 314 314 313 313 312 311 309 308 307 306 306 307 307 307 306 306 306 305 305 305 304 304 305 305 306 306 306 307 307 307 307 307 307 308 308 309 310 312 315 316 317 317 317 317 317 317 317 315 314 313 312 311 311 311 310 310 310 309 309 310 310 310 311 311
320 320 319 318 317 317 317 316 315 314 314 314 313 312 310 309 308 307 305 305 304 305 306 306 306 306 306 305 304 304 304 305 305 305 305 305 306 306 307 307 307 307 307 307 308 308 309 311 314 316 317 317 317 317 316 316 315 315 314 312 311 311 311 311 310 309 309 309 308 308 309 310 310 310
Wind_Speed
10 10 9 9 8 6 5 5 4 4 5 5 5 4 4 4 2 2 2 3 5 9 10 8 3 2 3 4 6 9 12 13 13 14 16 18 19 19 20 20 20 20 20 21 21 21 22 22 21 21 22 23 22 21 21 20 20 20 20 20 19 19 18 18 17 16 15 15 15 15 16 17 19 21
9 7 7 7 7 6 6 7 6 5 5 5 5 6 6 7 7 5 2 3 6 9 9 8 6 6 7 9 10 11 12 12 13 14 16 18 19 21 21 22 23 22 23 24 24 24 22 21 20 19 20 21 22 23 22 22 22 22 22 22 22 22 21 20 20 19 18 17 16 15 15 15 15 17
10 8 7 7 7 7 8 7 6 5 5 5 6 7 7 7 7 8 5 3 5 7 7 9 10 11 12 13 13 13 13 14 15 16 18 20 21 22 22 23 24 25 25 24 24 22 21 20 19 19 19 19 20 21 22 22 23 23 24 24 24 24 23 23 22 22 22 21 20 19 17 16 16 16
12 11 11 10 9 9 9 8 7 7 7 7 8 9 8 7 7 8 7 4 6 9 9 11 12 12 12 14 13 13 14 15 15 16 17 20 21 21 22 22 23 22 22 23 22 21 20 20 20 20 21 21 21 22 24 25 24 24 24 25 25 25 25 25 25 25 24 24 23 22 21 20 19 18
14 12 12 11 11 10 10 9 9 9 8 8 11 12 10 8 8 8 8 7 8 12 13 12 13 14 14 15 14 14 15 15 14 15 16 18 19 20 21 22 22 22 21 22 22 21 21 21 21 22 23 23 23 24 25 25 23 23 23 23 24 25 25 26 27 27 27 26 26 24 23 23 22 22
16 14 13 12 12 11 10 10 10 9 9 9 10 9 6 6 7 7 8 8 8 12 15 15 16 16 15 16 16 16 16 16 16 16 16 17 19 20 20 22 22 21 20 20 21 22 23 23 23 24 24 24 25 26 26 26 25 24 23 23 23 24 24 25 26 27 26 26 26 25 25 25 25 25
18 16 15 14 13 12 11 11 11 10 9 9 8 6 6 7 8 8 9 9 9 11 14 16 16 16 16 18 19 18 18 18 17 17 18 18 19 19 20 21 22 21 21 21 22 24 24 24 24 25 26 27 27 28 29 29 29 28 27 25 25 24 24 25 25 26 25 25 25 27 27 27 26 26
19 18 17 16 14 13 12 11 11 10 9 10 9 8 9 9 9 10 10 11 11 11 13 15 16 16 17 19 19 19 18 18 18 18 17 18 19 19 20 20 22 22 23 24 24 24 24 25 27 28 29 29 29 30 30 30 30 30 30 29 28 27 27 27 27 27 27 28 29 29 29 28 26 26
20 19 18 17 15 14 13 12 11 11 11 11 10 10 11 10 10 11 11 12 13 13 14 16 17 17 18 18 19 18 18 19 19 18 18 18 19 20 20 21 22 22 22 23 23 23 23 25 26 27 27 28 29 29 30 30 30 30 30 31 31 31 30 30 30 30 31 32 32 32 31 29 28 26
20 20 19 17 16 15 14 13 12 12 11 11 11 11 11 10 10 10 11 12 13 13 15 16 16 17 17 18 19 19 18 19 20 20 21 20 20 20 19 19 19 21 22 22 22 22 24 25 26 26 27 29 29 30 31 31 32 31 32 33 33 33 32 31 32 33 35 36 35 35 34 32 30 28
20 19 19 18 17 16 15 14 13 12 12 11 12 12 11 10 10 11 12 14 15 15 15 15 15 16 16 18 19 20 20 20 20 20 20 19 19 19 18 17 19 21 22 23 24 25 26 26 26 26 27 28 29 29 30 31 31 32 33 33 33 33 32 32 34 35 36 37 37 36 35 34 32 32
21 20 19 19 18 18 17 16 15 14 13 13 13 13 11 10 9 11 13 15 16 16 15 15 15 16 16 17 18 19 19 18 17 17 17 18 19 19 18 18 19 21 23 24 26 26 25 24 24 24 25 26 28 28 29 30 31 31 31 31 31 32 32 32 33 34 34 34 34 35 35 34 35 35
21 20 20 19 19 18 18 18 17 16 15 15 14 13 11 10 10 12 14 16 17 16 15 15 15 15 15 16 16 17 17 17 18 18 18 17 18 18 18 18 18 20 23 26 26 25 24 24 24 24 25 25 26 27 28 29 29 29 28 28 28 28 30 30 31 32 34 34 35 35 35 35 36 38
22 21 20 19 17 17 16 16 16 17 17 16 15 14 14 14 14 15 16 17 17 16 14 14 14 14 14 15 15 16 18 19 19 18 16 15 16 17 16 17 17 18 21 24 25 24 22 22 24 25 25 27 28 29 30 29 29 28 28 28 29 29 31 32 33 35 36 36 37 38 39 39 41 42
22 22 21 19 18 19 19 16 15 17 17 16 16 16 16 16 17 17 18 18 18 16 15 15 15 15 15 16 17 17 17 17 17 16 16 16 16 15 13 13 15 16 18 22 25 25 23 23 26 28 28 30 31 30 30 29 28 28 28 30 31 32 34 35 37 38 38 39 40 41 41 43 44 46
22 21 20 19 19 19 20 18 17 16 15 15 16 17 17 18 18 19 20 20 20 18 17 17 17 18 17 16 16 16 15 15 16 16 16 16 16 16 15 15 16 17 19 23 27 30 29 26 27 29 29 29 30 29 30 29 27 27 29 30 31 32 33 35 37 38 40 41 42 43 45 46 47 48
22 21 20 19 19 19 18 18 17 15 14 15 16 16 18 19 19 21 22 22 20 19 19 20 20 20 19 17 17 17 17 17 17 15 15 16 18 19 19 19 20 21 23 26 28 30 29 26 25 28 29 29 30 31 31 29 27 28 29 29 30 31 33 35 38 41 43 43 44 45 47 48 48 48
23 22 22 20 19 19 18 18 16 14 14 14 14 16 18 18 19 20 22 21 19 18 19 21 23 23 23 22 21 19 17 16 15 15 16 19 20 22 22 22 24 25 25 26 26 26 26 24 24 27 28 28 28 28 27 26 26 27 29 31 33 36 38 40 42 43 44 43 43 44 46 47 49 50
23 23 25 23 19 18 18 17 15 14 13 13 14 16 18 19 19 19 20 19 17 16 16 19 21 22 21 21 20 17 16 17 18 19 20 21 22 24 23 23 24 24 23 24 23 23 23 22 21 24 27 27 27 27 27 28 29 30 33 35 38 39 40 40 40 41 41 42 44 46 49 51 53 55
21 21 23 23 19 17 16 15 14 14 14 13 14 17 19 19 19 20 19 17 15 15 17 18 19 18 18 18 18 17 18 20 21 21 21 21 22 22 20 19 21 20 20 21 23 24 23 21 22 25 27 26 27 29 29 30 32 34 35 35 36 36 36 38 39 41 42 44 48 51 52 54 56 56
21 21 22 22 20 16 12 14 16 15 15 15 15 17 18 17 18 18 15 13 13 15 16 16 16 16 16 17 17 18 20 20 21 21 20 22 23 20 15 14 16 18 19 22 25 25 23 20 21 24 25 25 27 29 31 33 33 33 33 33 33 34 35 38 40 42 45 48 51 53 54 55 56 56
25 24 23 21 19 14 9 14 18 17 16 16 16 17 16 14 14 14 12 11 12 12 13 13 13 14 15 16 17 19 21 20 21 23 26 27 24 17 14 15 17 19 21 23 22 21 19 19 21 23 26 27 29 30 30 31 31 31 31 31 31 33 36 40 42 43 46 49 51 52 53 54 53 53
24 20 19 19 16 10 10 17 21 18 16 16 16 14 13 11 12 12 11 10 10 11 13 14 15 15 16 16 18 21 22 21 21 24 28 28 24 19 19 20 17 13 14 17 19 19 20 21 23 24 21 18 21 26 27 28 29 30 31 31 33 36 40 42 43 44 46 48 49 49 50 50 49 50
19 14 14 13 9 10 17 21 20 17 15 15 14 13 12 11 12 12 12 12 12 13 14 15 15 16 17 17 19 21 22 20 19 18 19 19 20 20 20 18 15 13 15 21 24 24 23 24 25 26 21 15 17 24 26 28 31 32 32 33 35 39 42 43 43 43 44 45 45 45 46 47 46 47
13 9 8 8 12 18 21 20 18 15 14 14 14 14 14 13 14 14 14 15 15 15 14 14 15 15 16 16 17 18 18 17 15 15 15 14 14 16 17 18 19 21 25 29 28 25 25 25 25 26 24 20 21 25 28 30 34 35 33 32 34 38 41 43 42 42 41 41 41 41 42 43 42 43
8 5 8 15 19 21 20 18 16 14 12 13 14 15 14 14 14 15 15 15 14 12 11 12 13 14 15 15 15 16 16 16 15 16 16 16 17 19 22 23 23 25 29 32 29 26 26 27 26 25 23 21 23 26 27 29 34 36 33 32 34 38 39 40 40 41 40 40 40 41 42 41 39 39
10 13 19 20 21 20 18 16 14 12 12 12 13 12 11 11 12 13 13 13 11 10 10 12 15 16 15 14 13 14 15 15 15 16 18 21 23 24 25 25 25 26 29 30 29 28 27 28 29 27 24 23 22 21 20 24 31 35 35 36 37 36 37 38 39 40 40 39 40 41 41 40 38 37
16 18 19 19 19 17 15 13 12 11 11 10 8 8 8 9 11 12 11 10 9 10 11 13 14 13 12 12 13 14 14 15 18 21 23 24 23 23 23 24 25 26 27 28 28 28 28 29 30 28 26 26 23 18 18 22 27 31 35 37 37 36 37 38 38 38 38 38 38 38 38 37 37 36
16 16 16 16 16 15 13 12 11 9 8 7 6 6 6 8 9 8 8 8 9 10 11 11 10 12 13 14 13 14 16 19 22 24 23 22 21 21 21 23 24 25 26 27 28 28 27 29 30 27 26 26 24 22 22 24 26 30 33 35 35 37 37 35 34 36 38 37 36 36 36 36 37 37
12 12 13 13 14 13 12 10 9 8 7 6 5 5 4 5 5 5 7 9 9 10 11 10 11 12 13 13 12 14 18 21 22 21 20 20 21 20 20 23 26 27 27 27 27 26 26 27 27 24 24 25 23 24 25 24 25 31 34 34 34 34 34 34 34 36 36 35 36 37 38 39 38 37
9 9 11 12 12 11 9 8 8 9 8 6 4 3 4 5 5 6 8 9 10 11 12 13 13 13 11 10 11 15 18 19 19 18 19 20 21 20 21 23 25 27 28 27 25 24 24 25 24 22 22 22 23 26 27 25 25 30 34 35 32 31 34 35 35 34 34 35 38 39 39 39 39 38
10 10 11 10 9 9 9 9 10 11 11 9 6 4 6 8 8 8 8 9 11 13 13 15 16 14 10 9 12 15 17 18 18 18 19 19 21 22 23 22 22 25 26 25 24 24 23 24 24 22 22 23 25 28 28 26 26 30 32 33 33 34 36 36 34 35 36 35 36 38 38 38 38 38
12 11 11 11 10 11 12 13 13 14 14 13 10 9 10 9 9 9 9 11 12 12 12 12 11 8 8 11 14 15 17 18 18 18 18 19 22 23 23 21 21 23 23 23 25 25 25 26 25 25 25 26 27 26 24 24 28 30 29 31 33 34 35 35 33 35 36 34 33 35 37 38 39 38
13 12 13 14 15 15 15 14 12 10 9 9 9 10 10 9 10 10 10 9 7 6 6 6 6 7 10 13 14 14 16 18 18 17 18 20 21 21 20 20 20 21 21 22 25 26 27 28 27 25 27 28 26 24 22 22 26 28 28 29 31 32 33 35 35 35 34 33 32 32 33 37 39 37
15 13 12 13 13 12 11 11 10 8 8 8 8 7 6 7 8 8 6 4 3 5 6 8 9 10 12 13 13 15 17 17 17 17 19 19 19 20 20 19 19 20 21 22 24 26 28 28 25 22 23 23 22 23 23 20 21 25 28 29 29 31 33 35 35 35 33 32 30 28 27 32 37 38
15 11 9 9 9 9 10 11 10 8 8 8 7 5 5 6 7 6 3 2 5 7 6 7 10 11 12 12 14 15 15 15 16 18 18 18 19 20 19 18 19 21 22 21 24 28 30 27 21 16 15 13 11 13 19 22 23 24 26 28 28 31 34 35 35 34 31 30 29 27 24 27 35 41
10 9 9 9 10 11 11 10 8 6 5 4 4 5 5 6 8 8 3 2 5 7 7 9 12 12 12 12 13 14 14 15 17 17 17 18 19 18 17 18 19 20 21 22 25 29 29 23 18 15 11 8 7 8 16 26 31 29 27 27 29 32 35 35 35 34 31 29 28 27 27 29 34 39
7 8 8 9 11 11 9 5 2 3 4 5 4 5 6 7 9 10 7 5 7 9 10 11 12 12 12 13 14 15 16 16 16 16 16 18 18 17 17 19 19 20 22 24 24 26 25 20 18 18 14 8 6 8 12 20 28 32 32 30 29 32 34 34 33 33 32 29 28 29 30 31 33 35
9 8 7 9 9 7 5 5 5 5 5 4 4 5 8 9 11 12 10 8 9 10 10 10 11 12 14 15 15 15 15 15 15 16 17 17 17 18 18 19 19 21 22 22 21 22 23 20 19 22 20 14 12 14 17 20 24 30 34 31 28 29 33 34 34 32 31 30 30 33 34 34 34 34
9 8 7 6 5 5 5 5 4 3 3 4 5 6 7 8 9 8 8 8 9 10 11 11 12 13 14 15 14 14 14 14 15 16 17 17 17 19 20 20 21 21 20 19 20 21 21 21 22 25 25 22 21 22 23 22 22 26 31 33 31 31 32 34 34 33 31 30 30 31 33 33 34 33
9 8 6 3 3 4 3 3 4 4 4 6 7 6 5 7 9 8 8 9 10 12 12 13 13 14 14 14 13 12 13 15 15 16 17 17 18 20 20 20 20 19 17 18 19 20 21 24 26 26 24 23 22 20 16 13 14 21 29 34 35 35 34 33 32 32 31 29 28 28 28 28 27 26
10 7 5 2 1 3 3 3 3 4 6 7 8 8 8 7 5 5 8 9 10 10 11 13 12 11 11 11 11 12 14 15 15 16 17 18 18 19 19 19 19 18 18 18 19 21 24 26 26 24 22 20 18 14 10 8 12 20 27 32 35 37 37 34 32 31 28 26 26 27 26 24 18 14
10 6 4 4 3 3 4 4 3 4 6 7 8 9 10 8 5 6 8 10 10 9 10 10 9 9 10 11 11 12 13 14 15 17 18 18 18 18 19 19 19 19 20 20 21 23 26 26 24 22 20 18 17 14 12 12 16 20 25 29 33 36 37 35 34 33 29 27 27 26 24 22 15 12
9 6 5 5 5 5 7 7 6 6 6 6 9 11 11 8 9 9 9 10 10 8 8 8 8 9 10 10 11 12 13 14 16 17 17 17 18 18 19 19 20 20 20 20 21 23 25 25 23 20 19 17 17 16 15 15 17 20 23 27 30 33 34 35 36 36 34 33 32 28 24 24 22 21
6 6 6 6 6 7 8 7 4 5 5 7 10 11 6 4 7 9 10 10 10 9 8 7 8 8 8 9 11 13 14 15 16 16 16 17 18 18 18 19 20 20 20 20 21 23 25 25 21 18 17 17 17 16 16 16 17 20 23 26 28 30 31 31 32 33 32 33 35 33 27 26 26 28
Wind_Direction
220 219 212 218 226 230 261 275 268 252 249 258 259 250 249 235 221 282 302 300 306 305 309 322 341 179 229 278 272 269 275 278 282 283 281 282 282 281 282 280 277 276 276 277 277 278 283 285 283 278 274 271 272 273 278 283 286 288 289 290 291 292 291 291 292 293 294 293 292 288 284 280 277 274
233 231 223 224 222 224 247 257 252 237 224 231 238 236 236 227 225 237 253 272 271 275 290 302 308 312 304 296 288 277 274 276 278 278 278 278 278 279 280 277 276 275 274 274 275 276 279 280 280 279 277 274 274 274 276 278 281 284 285 285 285 284 284 284 283 285 286 288 290 291 291 289 286 283
234 232 227 235 236 238 250 254 255 250 233 233 236 230 224 223 233 246 254 262 244 250 280 291 288 296 297 296 295 285 277 273 271 272 274 276 278 278 276 275 277 279 279 278 277 276 277 278 279 280 280 279 277 276 277 278 281 284 286 287 284 281 279 279 278 279 281 282 284 285 287 290 292 292
227 224 222 233 237 234 240 243 243 245 245 244 237 228 224 229 242 250 252 258 259 264 277 284 287 293 294 296 298 293 287 280 272 270 273 278 281 279 277 279 281 283 284 284 282 279 279 280 280 278 278 277 276 277 280 283 285 284 286 289 288 283 278 276 276 276 277 278 280 281 282 284 288 291
221 219 216 223 228 227 233 235 236 243 249 252 246 231 220 228 240 243 245 253 273 285 289 291 296 301 301 300 298 297 297 291 281 276 277 278 277 276 277 279 280 281 282 282 282 281 281 281 279 278 278 276 275 277 281 284 285 284 287 290 292 289 283 279 278 277 278 279 277 277 280 283 286 289
217 221 219 220 222 224 233 238 240 244 244 252 257 243 224 238 248 246 254 258 267 285 294 299 303 305 305 302 301 301 300 298 293 285 280 277 274 274 275 277 278 279 278 278 279 279 279 279 279 280 280 277 277 280 282 283 282 282 284 287 292 294 289 285 282 280 281 281 278 277 281 284 286 286
209 216 218 218 218 220 227 232 235 238 237 246 263 269 264 263 261 257 261 264 266 277 287 294 299 301 301 299 299 299 297 296 295 287 282 280 276 275 276 276 277 277 276 277 277 278 278 278 279 280 279 277 278 281 283 283 282 281 280 282 288 292 290 288 285 282 281 283 284 284 283 283 283 285
206 211 214 214 213 217 223 228 231 230 230 237 248 258 262 259 259 262 261 263 266 270 279 287 291 295 297 297 297 297 294 294 293 286 283 282 280 279 279 277 276 276 277 277 276 276 276 276 279 281 279 277 277 279 281 282 281 279 277 280 285 288 288 287 284 282 283 285 287 288 285 281 280 282
208 211 213 213 211 214 221 226 230 229 228 233 240 246 254 258 262 264 263 266 266 265 270 279 286 292 295 294 294 295 294 293 291 288 286 285 281 281 280 278 278 280 281 281 281 279 278 278 279 279 279 277 277 278 278 278 278 277 276 279 283 285 285 284 282 282 283 284 285 286 285 281 278 280
211 212 213 213 212 213 218 222 225 225 226 232 240 244 249 257 266 269 270 272 271 268 270 276 283 289 291 292 293 294 294 291 289 290 290 287 283 281 280 278 279 282 282 281 280 279 279 280 278 277 277 277 277 278 279 279 277 276 276 277 280 282 282 283 283 283 283 283 282 281 281 278 274 276
213 213 215 216 214 214 218 221 223 224 225 232 240 245 249 258 267 271 273 274 273 273 275 278 281 286 289 290 290 294 295 289 285 287 288 288 289 288 286 284 285 286 284 281 280 280 281 281 279 277 277 277 278 280 282 282 279 276 275 275 277 280 281 282 284 285 285 284 282 280 278 275 272 272
214 213 215 217 218 218 218 219 221 222 225 232 238 241 247 254 264 274 277 277 276 275 274 278 282 286 289 289 289 295 297 289 285 288 287 287 291 292 291 291 291 289 287 286 285 284 283 281 279 278 279 280 281 282 282 282 281 279 278 277 278 280 280 281 282 284 285 284 282 280 276 272 269 270
215 213 214 216 217 218 217 216 218 221 223 230 235 236 238 248 265 277 279 279 278 275 273 277 283 286 286 288 293 298 299 297 297 298 295 290 292 295 295 292 291 292 291 289 285 283 282 281 281 282 282 283 283 282 283 283 283 283 282 281 280 280 281 281 281 283 283 282 282 280 276 272 270 272
215 214 215 217 217 217 216 214 216 219 221 226 233 238 246 258 270 275 275 275 275 274 273 276 281 284 284 286 292 296 298 300 302 303 304 302 300 300 297 293 294 297 295 291 287 285 284 284 285 286 285 285 284 284 284 284 283 282 282 280 281 283 283 281 280 278 278 279 280 279 278 276 275 275
216 215 215 217 217 215 216 217 218 218 220 226 236 246 256 266 272 272 272 272 272 270 269 272 276 276 277 282 289 294 297 300 303 307 308 305 301 300 297 296 298 301 299 298 296 292 290 290 289 288 287 286 286 285 286 285 282 280 278 278 279 281 280 278 277 277 277 278 278 279 278 278 278 277
217 217 217 217 215 212 213 218 220 220 225 236 244 251 261 272 276 274 273 271 269 265 263 266 269 270 274 281 287 291 296 299 301 304 303 301 302 303 300 297 296 299 300 302 300 295 292 292 289 286 286 287 287 286 285 284 281 279 279 279 279 280 280 280 280 281 282 282 281 280 280 279 278 277
215 216 219 215 205 204 206 208 212 220 232 241 247 257 267 275 278 276 274 273 270 265 262 262 264 268 273 279 284 288 291 293 294 298 300 300 301 299 295 293 293 297 299 297 292 288 289 290 286 282 284 286 285 282 280 279 279 281 282 282 283 284 285 285 286 285 285 284 282 281 280 278 277 275
215 214 215 207 193 194 199 201 209 223 236 241 252 264 269 274 279 278 276 276 274 271 268 265 267 271 274 276 280 283 286 287 287 289 293 295 295 292 290 291 292 294 295 291 283 280 284 288 283 280 285 288 285 283 282 283 285 286 285 284 284 285 286 286 286 285 282 280 279 279 279 279 278 277
216 210 209 206 198 198 204 211 221 233 239 243 251 256 260 268 274 275 275 275 276 277 276 275 277 278 275 274 275 277 283 287 287 287 288 287 287 286 287 289 289 289 291 288 280 276 283 289 286 286 291 293 291 291 291 290 290 288 286 285 285 286 288 288 286 283 280 280 280 281 280 279 278 277
217 207 207 209 207 208 214 225 236 241 242 243 246 249 255 263 267 268 271 274 273 271 273 280 283 280 275 275 276 280 286 291 292 289 284 279 278 278 281 284 283 285 291 292 284 280 286 293 293 292 294 295 295 294 293 291 289 287 286 287 287 288 289 287 285 283 282 283 283 283 281 279 278 277
224 215 213 215 213 209 219 236 242 244 241 240 245 248 250 254 257 261 268 273 273 273 276 281 283 281 281 279 280 283 287 291 291 282 272 272 273 272 273 278 283 289 294 293 287 284 289 300 302 299 301 301 298 296 293 290 288 287 286 287 288 289 289 288 286 284 283 284 284 283 282 281 280 279
229 217 211 212 208 201 221 245 245 242 240 243 251 250 245 245 250 257 267 270 272 275 278 283 287 288 287 281 280 286 287 287 283 272 267 272 273 268 272 282 287 289 288 288 292 293 300 312 315 311 309 303 296 293 292 290 289 288 288 289 289 291 292 291 289 287 286 286 286 285 284 284 282 280
223 210 199 194 191 199 243 250 242 240 244 250 254 248 239 241 248 256 262 262 267 274 279 285 289 289 288 283 282 284 283 281 283 281 279 278 272 264 270 277 282 285 285 293 306 313 314 316 315 312 309 301 296 295 293 292 292 291 291 292 293 295 296 294 293 292 291 291 290 289 288 287 283 278
219 204 188 184 197 243 254 246 238 241 249 247 240 233 231 239 247 252 256 259 271 283 286 288 289 287 286 284 280 281 280 281 291 301 302 291 275 267 272 281 293 302 299 300 308 313 313 310 306 303 299 292 293 297 295 293 294 294 295 295 296 299 300 299 298 297 296 294 293 292 291 288 283 276
209 185 182 216 250 252 244 238 239 244 243 233 226 229 235 244 249 254 259 267 279 287 287 286 286 285 284 283 282 287 292 295 305 318 323 313 296 292 301 310 312 305 297 298 302 305 304 300 298 297 294 287 287 292 296 296 295 296 299 298 298 301 302 302 301 300 299 297 295 294 294 291 285 275
186 207 243 247 247 241 235 237 239 235 227 222 226 234 242 250 254 258 266 276 283 285 283 282 282 279 277 277 281 293 305 313 319 320 317 311 306 306 306 306 303 296 293 296 300 299 295 291 290 290 289 286 287 290 294 296 298 301 303 302 301 303 304 305 305 304 302 300 298 298 299 296 289 278
209 246 249 239 234 233 233 235 231 222 219 223 229 238 248 256 261 268 276 279 274 268 269 272 273 273 275 282 294 308 319 323 321 316 311 306 303 301 299 295 292 289 289 294 297 295 289 286 285 284 283 284 286 288 289 293 299 304 306 306 306 308 310 311 309 306 304 301 300 301 301 300 295 286
225 237 237 228 226 228 229 227 222 217 221 227 236 253 264 269 272 276 278 273 262 258 261 265 270 281 297 311 321 325 325 322 316 312 309 305 301 297 295 293 291 291 293 296 298 295 290 284 282 283 284 285 286 289 291 292 296 301 305 308 310 312 314 314 312 308 305 302 301 301 300 298 297 293
222 223 224 224 223 219 215 213 210 214 226 241 262 276 278 279 281 279 270 261 257 259 261 268 284 300 307 311 316 318 315 312 310 307 304 301 299 297 297 297 297 298 299 299 298 295 289 283 280 283 288 290 289 290 291 292 296 299 303 307 310 312 313 314 312 309 307 304 302 301 300 298 296 295
216 218 217 213 208 204 206 213 220 232 246 255 267 278 279 282 283 266 251 251 254 258 261 268 281 291 294 297 304 312 312 309 305 303 301 302 302 303 304 303 302 301 301 301 298 295 290 287 286 288 293 295 294 292 292 293 296 300 304 308 310 310 312 312 312 310 308 305 304 304 302 300 296 295
209 204 200 197 199 205 216 232 242 245 243 233 230 247 257 254 245 240 247 251 252 255 263 270 276 281 288 298 311 317 313 307 303 304 305 304 304 305 306 303 300 300 302 302 300 298 299 299 297 296 297 298 297 298 298 296 295 298 304 309 311 309 311 312 312 312 311 309 308 306 305 302 299 297
199 196 193 195 207 221 227 230 229 224 220 214 211 228 242 242 242 245 250 252 253 260 271 277 277 277 286 311 325 322 311 303 304 307 306 305 305 306 304 298 294 297 300 304 307 309 310 309 306 303 303 300 299 301 302 300 299 299 303 308 311 310 311 313 314 314 315 314 310 307 305 303 302 300
199 205 206 208 216 220 217 215 216 215 210 204 204 216 227 237 249 255 255 258 266 274 282 282 281 289 313 325 324 317 307 303 305 307 308 308 306 303 299 293 292 296 301 307 313 315 314 314 311 308 307 305 301 301 302 301 301 301 303 308 311 312 313 316 317 317 317 314 309 307 306 304 304 303
196 206 211 213 215 215 215 223 235 240 231 218 219 228 232 237 249 258 262 270 283 300 314 321 324 323 320 318 317 312 305 301 304 308 309 308 305 302 300 296 297 302 307 311 314 315 315 314 312 311 313 313 307 305 306 301 298 301 307 311 312 313 316 319 320 318 316 313 308 305 306 306 306 306
202 211 217 223 227 231 242 257 266 267 259 250 251 263 269 267 270 275 270 273 330 2 360 347 334 322 318 318 314 305 298 298 306 312 311 310 309 307 303 301 303 310 315 314 315 316 314 311 310 315 320 319 314 313 316 313 306 307 312 314 315 317 319 321 321 319 316 314 310 306 308 310 308 308
209 225 242 253 259 264 269 273 273 271 268 264 268 290 308 308 314 320 308 311 348 355 351 335 325 321 318 311 301 297 300 309 314 312 310 312 313 309 307 309 313 316 316 316 316 316 311 306 311 322 325 321 318 317 318 320 320 318 315 315 318 322 323 321 321 320 317 316 315 312 312 312 308 307
215 241 256 264 268 269 271 272 268 269 280 293 318 342 351 343 330 323 320 8 8 5 359 342 329 320 313 308 307 309 313 313 310 308 312 316 314 312 315 318 317 316 316 315 313 311 307 307 319 333 329 319 322 316 311 317 324 328 328 322 321 325 327 323 321 323 322 320 319 318 316 312 307 307
224 243 252 262 271 281 296 316 359 24 26 30 18 356 343 332 315 302 305 354 20 14 359 339 322 317 321 320 316 313 309 305 306 312 317 316 315 319 322 319 316 316 314 310 310 312 313 316 327 334 330 318 314 312 311 316 322 328 334 332 325 326 329 327 323 323 324 323 323 324 322 313 306 309
234 246 262 275 284 307 356 39 50 34 19 16 10 339 315 309 301 293 300 340 15 13 354 331 317 321 323 314 305 303 305 308 315 320 318 316 320 324 321 316 314 313 310 310 315 320 320 321 329 332 325 312 303 306 306 305 308 320 331 335 332 331 331 329 326 326 326 326 328 329 328 324 320 324
230 237 253 275 310 1 32 40 31 11 339 327 323 309 301 316 328 322 319 341 359 349 328 314 310 311 306 300 300 305 311 317 320 318 317 321 324 322 317 314 314 313 313 316 320 321 320 323 329 330 323 315 313 314 309 303 306 319 331 335 338 339 337 333 330 328 327 330 334 334 333 332 329 331
210 216 225 249 345 4 7 358 347 334 322 316 309 307 321 339 348 350 344 341 342 335 317 301 293 288 285 293 306 315 317 320 319 318 321 325 323 319 317 318 317 318 320 321 318 320 324 326 328 330 330 328 329 326 317 311 318 329 333 335 338 343 344 341 338 336 333 334 340 341 336 330 324 326
203 208 206 207 297 298 290 305 312 309 316 316 315 326 333 323 322 354 349 325 311 303 293 283 279 280 290 306 318 321 319 319 320 323 325 321 317 318 321 321 321 322 323 320 318 322 326 327 328 332 335 337 338 333 323 326 334 334 334 335 338 343 347 347 346 346 344 344 350 352 344 334 327 329
192 205 207 200 209 231 248 260 262 274 296 310 315 315 311 308 328 359 339 309 291 279 275 279 289 302 310 316 320 320 321 322 322 320 317 314 317 321 322 321 323 324 323 321 322 326 327 326 328 333 335 337 340 337 331 335 341 338 337 338 340 343 346 347 349 353 355 358 4 5 357 348 344 337
186 200 199 192 194 217 236 244 251 265 277 291 297 290 285 303 333 333 309 296 296 291 285 295 309 310 311 319 324 323 322 318 313 311 312 317 323 324 322 323 326 325 324 326 328 328 327 323 326 335 340 340 342 342 340 342 344 342 342 343 343 343 344 346 349 354 358 3 8 10 6 2 4 359
206 201 198 206 211 218 226 229 246 286 292 287 288 288 288 319 320 304 288 285 289 287 289 299 304 303 312 326 325 318 314 311 310 315 320 323 324 324 326 327 325 323 327 331 330 327 324 321 324 337 346 346 349 353 352 349 347 346 348 349 347 345 346 348 350 352 354 358 5 10 10 9 11 13